Total_Precipitation_Accumulation
2.33 2.27 3.38 3.50 2.91 2.29 2.09 2.01 1.79 1.64 1.65 1.65 1.47 1.35 1.29 1.22 1.05 0.91 0.83 0.77 0.75 0.76 0.82 0.81 0.81 0.88 0.95 0.91 0.83 1.04 1.13 1.07 1.00 0.98 1.10 1.23 1.31 1.46 1.67 1.91 2.23 2.50 2.24
1.94 1.96 3.13 3.33 2.81 2.23 1.93 1.87 1.80 1.66 1.70 1.61 1.59 1.46 1.37 1.23 1.06 0.93 0.79 0.78 0.79 0.80 0.77 0.80 0.84 0.83 0.90 0.98 0.96 1.10 1.13 0.99 0.91 0.98 1.27 1.49 1.44 1.48 1.64 1.73 2.11 2.38 2.17
1.53 1.61 2.39 3.04 2.76 2.27 1.95 1.80 1.79 1.72 1.79 1.72 1.71 1.52 1.41 1.30 1.19 1.02 0.92 0.99 0.96 0.89 0.83 0.79 0.87 0.89 0.90 1.08 1.06 1.05 1.01 0.97 0.95 1.13 1.64 2.35 1.91 1.55 1.65 1.71 1.95 1.88 1.89
1.41 1.50 1.83 2.54 2.43 2.02 1.81 1.77 1.84 1.81 1.91 1.83 1.69 1.46 1.35 1.35 1.30 1.15 1.07 1.16 1.00 0.88 0.83 0.83 0.90 0.99 0.96 1.08 1.05 0.98 0.91 0.96 1.13 1.29 1.72 2.23 2.29 1.84 1.80 1.91 1.93 1.83 1.87
1.38 1.48 2.00 2.54 2.28 1.98 1.77 1.85 1.92 1.92 1.95 1.77 1.55 1.32 1.33 1.36 1.34 1.31 1.28 1.23 1.00 0.92 0.85 0.85 0.92 0.95 0.96 1.00 0.96 0.95 0.91 1.02 1.30 1.36 1.63 2.00 2.42 2.22 1.82 1.86 1.93 1.92 2.05
1.39 1.49 1.89 2.38 2.21 1.97 1.78 1.88 1.95 2.03 2.03 1.90 1.63 1.35 1.32 1.33 1.31 1.28 1.32 1.19 1.06 0.97 0.88 0.87 0.91 0.95 0.95 0.97 0.99 0.96 0.99 1.10 1.17 1.37 1.67 2.07 2.30 2.12 1.76 1.80 1.93 2.12 2.15
1.27 1.31 1.54 2.10 2.12 1.95 1.86 2.06 2.11 2.13 2.17 2.11 1.79 1.56 1.43 1.35 1.32 1.35 1.38 1.24 1.16 1.08 1.02 1.00 1.00 1.00 0.97 1.02 0.99 0.95 0.95 0.97 0.98 1.23 1.49 2.06 2.13 1.95 1.78 1.79 1.82 1.92 2.06
1.37 1.29 1.27 1.82 2.02 1.96 1.97 2.06 2.08 2.09 2.09 2.09 1.86 1.68 1.52 1.38 1.31 1.41 1.46 1.30 1.22 1.09 1.04 1.05 1.08 1.12 1.09 1.07 1.04 0.99 0.96 0.81 0.78 0.99 1.29 1.79 2.05 2.00 1.84 1.90 1.99 1.96 2.08
1.53 1.47 1.32 1.43 1.69 1.95 2.01 1.93 1.91 1.89 1.92 2.00 1.78 1.65 1.49 1.36 1.25 1.31 1.36 1.26 1.23 1.21 1.19 1.16 1.23 1.23 1.11 1.11 1.10 1.04 0.99 0.82 0.83 0.99 1.01 1.59 2.04 2.05 1.83 1.84 2.06 2.18 2.20
1.72 1.59 1.38 1.32 1.39 1.46 1.64 1.80 1.92 1.94 1.92 1.97 1.74 1.56 1.44 1.32 1.18 1.21 1.16 1.16 1.26 1.33 1.40 1.40 1.40 1.33 1.28 1.18 1.09 1.00 0.93 0.75 0.83 0.88 1.15 1.53 2.04 2.16 1.96 1.76 1.75 1.83 1.91
1.48 1.40 1.45 1.44 1.44 1.47 1.42 1.49 1.76 1.87 1.88 1.76 1.68 1.57 1.38 1.08 0.93 0.99 1.00 1.24 1.37 1.48 1.56 1.59 1.55 1.52 1.37 1.17 1.07 0.93 0.77 0.73 0.85 0.95 1.33 1.76 2.14 2.30 2.06 1.69 1.60 1.56 1.64
1.17 1.15 1.24 1.26 1.38 1.42 1.29 1.50 1.77 1.63 1.54 1.30 1.32 1.19 1.17 1.07 0.98 0.82 0.95 1.30 1.44 1.48 1.48 1.55 1.63 1.46 1.17 0.87 0.82 0.76 0.68 0.66 0.70 0.84 1.32 1.97 2.24 2.29 2.04 1.79 1.67 1.65 1.72
0.99 0.98 0.96 1.00 1.07 1.19 1.35 1.59 1.88 1.94 1.75 1.53 1.27 1.18 1.18 1.07 0.95 0.87 0.87 1.00 1.12 1.15 1.04 1.08 1.11 0.99 0.90 0.80 0.79 0.68 0.66 0.64 0.69 0.82 1.43 2.00 2.25 2.32 2.13 2.00 1.97 1.97 1.98
0.84 0.95 0.79 0.68 0.83 1.00 1.13 1.25 1.52 1.59 1.53 1.41 1.19 1.10 1.18 1.15 1.01 0.99 0.97 1.00 1.01 1.00 1.04 1.03 1.07 1.04 0.86 0.76 0.75 0.78 0.75 0.70 0.76 0.97 1.43 1.87 2.24 2.44 2.37 2.32 2.32 2.23 2.27
0.82 0.90 0.81 0.70 0.68 0.75 0.82 0.92 1.07 1.24 1.32 1.33 1.26 1.08 1.09 1.14 1.09 1.09 1.04 1.06 0.95 0.90 0.97 1.02 1.05 1.08 0.98 0.84 0.78 0.78 0.84 0.78 0.76 0.91 1.20 1.59 2.08 2.49 2.64 2.54 2.33 2.23 2.27
0.71 0.84 0.83 0.74 0.71 0.73 0.70 0.71 0.73 0.88 1.05 1.17 1.20 1.10 1.12 1.16 1.12 1.18 1.13 1.08 1.02 0.93 0.96 1.14 1.09 1.12 1.10 1.02 0.85 0.82 0.82 0.78 0.75 0.81 0.97 1.29 1.59 1.90 2.31 2.62 2.49 2.27 2.12
0.67 0.74 0.80 0.79 0.82 0.83 0.79 0.77 0.65 0.70 0.80 0.95 1.08 1.08 1.15 1.11 1.05 1.11 1.12 1.06 1.04 1.04 1.05 1.10 1.11 1.16 1.07 0.99 0.95 0.87 0.83 0.79 0.71 0.79 0.80 0.92 0.99 1.24 1.66 2.09 2.39 2.38 2.28
0.75 0.80 0.85 0.85 0.88 0.91 0.93 0.92 0.84 0.88 0.95 1.00 1.14 1.10 1.08 1.15 1.12 1.11 1.14 1.12 1.15 1.19 1.17 1.19 1.24 1.22 1.15 1.14 1.11 1.06 0.88 0.88 0.79 0.81 0.80 0.82 0.88 0.86 1.05 1.31 1.65 1.97 2.23
0.69 0.74 0.79 0.86 0.88 0.90 0.94 1.02 1.14 1.19 1.19 1.18 1.23 1.17 1.10 1.13 1.19 1.30 1.33 1.35 1.31 1.33 1.32 1.28 1.31 1.21 1.20 1.21 1.14 1.14 1.03 0.99 0.92 0.79 0.86 0.88 0.88 0.82 0.87 0.82 0.92 1.12 1.47
0.58 0.63 0.70 0.79 0.95 1.06 1.12 1.12 1.28 1.32 1.39 1.47 1.50 1.36 1.23 1.28 1.41 1.60 1.69 1.59 1.56 1.56 1.55 1.51 1.56 1.44 1.31 1.33 1.23 1.19 1.10 0.97 1.01 0.96 0.92 0.92 0.96 0.92 0.85 0.74 0.71 0.64 0.81
0.46 0.51 0.59 0.68 0.86 0.96 1.01 1.12 1.31 1.47 1.64 1.79 1.88 1.76 1.59 1.56 1.74 1.88 1.81 1.89 1.90 1.78 1.80 1.87 1.91 1.87 1.66 1.51 1.57 1.47 1.18 0.93 0.99 0.96 0.91 0.95 1.00 1.10 1.12 0.98 0.84 0.75 0.72
0.30 0.34 0.42 0.52 0.60 0.75 0.91 1.16 1.36 1.64 1.71 1.80 1.92 1.96 1.87 1.80 1.99 2.02 2.08 2.18 2.20 2.20 2.15 2.05 2.18 2.32 2.04 1.78 1.88 2.18 1.80 1.39 1.01 0.80 0.87 0.91 1.01 1.24 1.31 1.12 0.93 0.86 0.83
0.23 0.24 0.32 0.44 0.57 0.80 1.04 1.37 1.66 1.92 2.00 2.06 2.00 2.02 2.08 2.12 2.20 2.24 2.28 2.34 2.36 2.19 2.19 2.30 2.44 2.79 2.59 2.20 1.98 2.25 2.10 1.79 1.45 1.01 0.90 0.94 1.03 1.20 1.32 1.34 1.22 1.15 1.05
0.23 0.28 0.40 0.58 0.78 1.04 1.36 1.75 2.02 2.26 2.38 2.22 2.16 2.16 2.15 2.11 2.15 2.27 2.27 2.25 2.23 2.16 2.22 2.28 2.34 2.77 2.97 2.67 2.31 1.92 1.71 1.68 1.75 1.47 1.07 1.00 1.08 1.09 1.20 1.29 1.23 1.29 1.28
0.37 0.45 0.62 0.89 1.19 1.46 1.69 1.88 2.11 2.25 2.27 2.22 2.15 2.14 2.06 2.02 2.01 2.03 2.03 2.13 2.16 2.20 2.26 2.41 2.54 2.81 2.83 2.82 2.63 2.41 2.19 1.87 1.53 1.60 1.54 1.26 1.19 1.09 1.18 1.31 1.35 1.43 1.46
0.54 0.69 0.88 1.08 1.38 1.56 1.69 1.79 1.95 2.10 2.16 2.15 2.12 2.12 2.13 2.09 1.99 1.91 1.86 1.93 2.06 2.21 2.26 2.36 2.52 2.76 2.86 2.94 2.84 2.57 2.48 2.32 2.02 1.90 1.63 1.48 1.47 1.25 1.21 1.25 1.29 1.42 1.57